DW3212 Weather Reports


time (UTC)temp
C
wind
direction
speed
KPH
gust
KPH
rain 1hr
cm
rain 24hr
cm
rain mn
cm
humidity
%
barometer
mb
20260504100104 5 0.0 0.0 0.00 0.00 0.00 65 1008.2
20260504081605 5 0.0 0.0 0.00 0.00 0.00 75 1008.4
20260504044557 5 0.0 0.0 0.00 0.00 0.00 65 1008.7
20260504043059 5 0.0 0.0 0.00 0.00 0.00 63 1008.7
20260504041555 5 0.0 0.0 0.00 0.00 0.00 60 1008.6
20260504040131 5 0.0 0.0 0.00 0.00 0.00 59 1008.5
20260504034601 5 0.0 0.0 0.00 0.00 0.00 58 1008.5
20260504033056 5 0.0 0.0 0.00 0.00 0.00 56 1008.4
20260504031608 5 0.0 0.0 0.00 0.00 0.00 54 1008.2
20260504030056 5 0.0 0.0 0.00 0.00 0.00 52 1008.2
20260504024603 5 0.0 0.0 0.00 0.00 0.00 50 1008.2
20260504023056 5 0.0 0.0 0.00 0.00 0.00 49 1008.4
20260504021554 5 0.0 0.0 0.00 0.00 0.00 48 1008.6
20260504020109 5 0.0 0.0 0.00 0.00 0.00 48 1008.4
20260504014554 5 0.0 0.0 0.00 0.00 0.00 48 1008.2
20260504013056 5 0.0 0.0 0.00 0.00 0.00 47 1008.1
20260504011556 5 0.0 0.0 0.00 0.00 0.00 48 1007.9
20260504010056 5 0.0 0.0 0.00 0.00 0.00 46 1007.8
20260504004556 5 0.0 0.0 0.00 0.00 0.00 43 1007.6
20260504003056 5 0.0 0.0 0.00 0.00 0.00 42 1007.5
20260504001559 5 0.0 0.0 0.00 0.00 0.00 43 1007.1
20260504000059 5 0.0 0.0 0.00 0.00 0.00 43 1007.0
20260503234623 5 0.0 0.0 0.00 0.00 0.00 43 1006.8
20260503233053 5 0.0 0.0 0.00 0.00 0.00 44 1006.8
20260503231558 6 0.0 0.0 0.00 0.00 0.00 44 1006.6
20260503230056 6 0.0 0.0 0.00 0.00 0.00 43 1006.6
20260503224554 6 0.0 0.0 0.00 0.00 0.00 42 1006.6
20260503223054 6 0.0 0.0 0.00 0.00 0.00 43 1006.6
20260503221601 6 0.0 0.0 0.00 0.00 0.00 45 1006.5
20260503220059 6 0.0 0.0 0.00 0.00 0.00 44 1006.5
20260503214556 7 0.0 0.0 0.00 0.00 0.00 43 1006.6
20260503213057 7 0.0 0.0 0.00 0.00 0.00 45 1006.6
20260503211559 6 0.0 0.0 0.00 0.00 0.00 46 1006.5
20260503210054 6 0.0 0.0 0.00 0.00 0.00 46 1006.5
20260503204557 6 0.0 0.0 0.00 0.00 0.00 45 1006.4
20260503203058 6 0.0 0.0 0.00 0.00 0.00 47 1006.5
20260503201554 6 0.0 0.0 0.00 0.00 0.00 45 1006.6
20260503200057 7 0.0 0.0 0.00 0.00 0.00 44 1006.6
20260503194559 6 0.0 0.0 0.00 0.00 0.00 44 1006.6
20260503193056 6 0.0 0.0 0.00 0.00 0.00 44 1006.7
20260503191555 6 0.0 0.0 0.00 0.00 0.00 44 1007.0
20260503190056 6 0.0 0.0 0.00 0.00 0.00 47 1006.9
20260503184558 6 0.0 0.0 0.00 0.00 0.00 44 1006.8
20260503183058 6 0.0 0.0 0.00 0.00 0.00 48 1006.8
20260503181600 7 0.0 0.0 0.00 0.00 0.00 48 1006.8
20260503180107 7 0.0 0.0 0.00 0.00 0.00 51 1006.8
20260503174559 5 0.0 0.0 0.00 0.00 0.00 52 1006.8
20260503173107 6 0.0 0.0 0.00 0.00 0.00 49 1006.6
20260503171553 6 0.0 0.0 0.00 0.00 0.00 46 1006.6
20260503140107 3 0.0 0.0 0.00 0.00 0.00 64 1007.3